STARLINK-30276, 57652

Orbit data source: Space-Track

STARLINK-30276, 57652 is a payload satellite owned by SpaceX/Seattle (US) in LEO that was launched on Thu, 17 Aug 2023 UTC via an FALCON 9 launch vehicle from the Air Force Eastern Test Range (AFETR). Payload-class satellites include a variety of spacecraft equipped with specific instruments for various scientific and technological missions. These include communications satellites like Starlink; space stations such as the ISS; scientific satellites like the Hubble; Earth observation satellites from companies like Planet Labs, Umbra, and HawkEye 360; GPS; miniature CubeSats for education and research; and military/defense satellites.

Loading next visibility...
Identifier
57652, 2023-122W
Orbit
LEO
Country
Flag of USUS
Related business
Manufacturer
SpaceX/Seattle
Mission
Operational Commercial Communications
Bus & Motor
STARLINK V2M, Unknown motor
Mass
730 kg wet, ~700 kg dry
Launch date (UTC)
2023-08-17 (2 years ago)
Launch vehicle
FALCON 9
Launch site
Air Force Eastern Test Range (AFETR)
Object type
Payload
Rocket body
Debris
Shape & HBR
Box + 2 Pan, 14.5 m
Radar Cross Section
33.884 m², Large (>1 m²)

Expand to show TLE details & history
Last TLE update: 11 hours ago

TLE from 11 hours ago
0 STARLINK-30276
1 57652U 23122W   25243.15045814  .00003182  00000-0  25057-3 0  9995
2 57652  43.0028  49.6375 0001174 248.6340 111.4377 15.02532565113528
Epoch: 2025-08-31T03:36Z
TLE epoch observation values (Epoch: 2025-08-31T03:36:39.583Z)
Latitude
-0.00002°
Longitude
15.89802°
Altitude
559.166 km
Speed
7.584 km/s
True Right ascension
03h 18m 32s
True Declination
0° 00' 00"
Sunlit
Object was in daylight at epoch
Visualization orbit readout
Latitude
Unknown
Longitude
Unknown
Altitude
Unknown
Speed
Unknown
Apparent Right ascension
Unknown
Apparent Declination
Unknown
Sunlit
N/A
Visualization observer readout
Local Sidereal Time
06:13:59
Azimuth
Unknown
Elevation
Unknown
Doppler factor
Unknown
Orbital elements
Apogee altitude
561.828 km
Perigee altitude
560.199 km
Semi-major axis
6,939.151 km
Eccentricity
0.00012
Inclination
43.0028°
RAAN
49.6375°
Arg. of periapsis
248.634°
True anomaly
111.45022°
Mean anomaly
111.4377°
Eccentric anomaly
111.44396°
Mean motion
3.75477 °/min
Orbital period
95.88 mins
BSTAR
0.00025057
Loading maneuver chart data...
Computing Atmospheric mass density...
Loading historical data...
Loading historical data...
Loading historical data...
Loading historical data...
Loading historical data...
Loading historical data...
Loading historical data...

Documentation

Showing up to 5 results
|